TimeCET,TemperatureF,Dew PointF,Humidity,Sea Level PressureIn,VisibilityMPH,Wind Direction,Wind SpeedMPH,Gust SpeedMPH,PrecipitationIn,Events,Conditions,WindDirDegrees,DateUTC
12:00 AM,28.4,26.6,93,30.12,6.2,Variable,1.2,-,N/A,,Overcast,0,2013-02-17 23:00:00
1:00 AM,28.4,26.6,93,30.12,6.2,Variable,1.2,-,N/A,,Overcast,0,2013-02-18 00:00:00
2:00 AM,28.4,24.8,86,30.12,6.2,ESE,3.5,-,N/A,,Overcast,110,2013-02-18 01:00:00
3:00 AM,28.4,26.6,93,30.09,6.2,NNW,1.2,-,N/A,,Overcast,330,2013-02-18 02:00:00
4:00 AM,26.6,26.6,100,30.09,6.2,Calm,Calm,-,N/A,,Mostly Cloudy,0,2013-02-18 03:00:00
5:00 AM,26.6,24.8,93,30.09,5.0,Calm,Calm,-,N/A,,Mostly Cloudy,0,2013-02-18 04:00:00
6:00 AM,26.6,24.8,93,30.09,4.3,Calm,Calm,-,N/A,,Mostly Cloudy,0,2013-02-18 05:00:00
7:00 AM,26.6,26.6,100,30.09,5.0,Calm,Calm,-,N/A,,Mostly Cloudy,0,2013-02-18 06:00:00
7:30 AM,26.6,26.6,100,30.09,3.1,Calm,Calm,-,N/A,,Mostly Cloudy,0,2013-02-18 06:30:00
8:00 AM,26.6,26.6,100,30.09,2.5,Calm,Calm,-,N/A,,Overcast,0,2013-02-18 07:00:00
8:30 AM,26.6,26.6,100,30.09,-9999.0,Variable,1.2,-,N/A,,Overcast,0,2013-02-18 07:30:00
8:37 AM,28.4,26.6,93,30.09,1.9,Calm,Calm,-,N/A,Snow,Light Snow Grains,0,2013-02-18 07:37:00
9:00 AM,28.4,26.6,93,30.09,1.6,Calm,Calm,-,N/A,Snow,Light Snow Grains,0,2013-02-18 08:00:00
9:30 AM,28.4,26.6,93,30.09,1.9,Calm,Calm,-,N/A,Snow,Light Snow Grains,0,2013-02-18 08:30:00
10:00 AM,28.4,26.6,93,30.09,-9999.0,Calm,Calm,-,N/A,Snow,Light Snow Grains,0,2013-02-18 09:00:00
10:30 AM,28.4,24.8,86,30.09,2.8,Calm,Calm,-,N/A,Snow,Light Snow Grains,0,2013-02-18 09:30:00
11:00 AM,28.4,24.8,86,30.09,3.7,Variable,2.3,-,N/A,Snow,Light Snow,0,2013-02-18 10:00:00
11:30 AM,28.4,26.6,93,30.09,4.3,SSW,2.3,-,N/A,Snow,Light Snow,210,2013-02-18 10:30:00
12:00 PM,30.2,26.6,86,30.09,4.3,SSW,3.5,-,N/A,,Overcast,210,2013-02-18 11:00:00
12:30 PM,30.2,24.8,80,30.09,5.0,Variable,2.3,-,N/A,,Overcast,0,2013-02-18 11:30:00
1:00 PM,30.2,24.8,80,30.09,6.2,Variable,2.3,-,N/A,,Overcast,0,2013-02-18 12:00:00
1:30 PM,30.2,26.6,86,30.06,6.2,Variable,2.3,-,N/A,,Overcast,0,2013-02-18 12:30:00
2:00 PM,30.2,26.6,86,30.06,6.2,Calm,Calm,-,N/A,,Overcast,0,2013-02-18 13:00:00
2:30 PM,30.2,24.8,80,30.06,6.2,Variable,2.3,-,N/A,,Overcast,0,2013-02-18 13:30:00
3:00 PM,30.2,24.8,80,30.06,6.2,Variable,2.3,-,N/A,,Overcast,0,2013-02-18 14:00:00
3:30 PM,30.2,26.6,86,30.06,6.2,WSW,3.5,-,N/A,,Mostly Cloudy,250,2013-02-18 14:30:00
4:00 PM,30.2,26.6,86,30.06,6.2,Variable,2.3,-,N/A,,Mostly Cloudy,0,2013-02-18 15:00:00
4:30 PM,30.2,26.6,86,30.06,6.2,Variable,2.3,-,N/A,,Mostly Cloudy,0,2013-02-18 15:30:00
5:00 PM,30.2,26.6,86,30.04,6.2,West,1.2,-,N/A,,Mostly Cloudy,260,2013-02-18 16:00:00
5:30 PM,30.2,26.6,86,30.04,6.2,WSW,3.5,-,N/A,,Mostly Cloudy,250,2013-02-18 16:30:00
6:00 PM,28.4,24.8,86,30.04,6.2,WSW,4.6,-,N/A,,Mostly Cloudy,250,2013-02-18 17:00:00
6:30 PM,28.4,24.8,86,30.06,6.2,WSW,4.6,-,N/A,,Mostly Cloudy,250,2013-02-18 17:30:00
7:00 PM,28.4,24.8,86,30.04,6.2,WSW,5.8,-,N/A,,Mostly Cloudy,240,2013-02-18 18:00:00
7:30 PM,28.4,23.0,80,30.04,6.2,WSW,5.8,-,N/A,,Mostly Cloudy,250,2013-02-18 18:30:00
8:00 PM,28.4,23.0,80,30.04,6.2,WSW,4.6,-,N/A,,Overcast,240,2013-02-18 19:00:00
9:00 PM,26.6,23.0,86,30.04,6.2,WSW,3.5,-,N/A,,Overcast,250,2013-02-18 20:00:00
10:00 PM,26.6,23.0,86,30.04,6.2,Variable,1.2,-,N/A,,Overcast,0,2013-02-18 21:00:00
11:00 PM,26.6,23.0,86,30.01,6.2,SSW,2.3,-,N/A,,Overcast,200,2013-02-18 22:00:00